TimeCST,TemperatureF,Dew PointF,Humidity,Sea Level PressureIn,VisibilityMPH,Wind Direction,Wind SpeedMPH,Gust SpeedMPH,PrecipitationIn,Events,Conditions,WindDirDegrees,DateUTC
12:53 AM,26.6,6.8,43,30.36,10.0,NE,5.8,-,N/A,,Overcast,40,2013-01-23 06:53:00
1:53 AM,26.1,5.0,41,30.39,10.0,NE,5.8,-,N/A,,Overcast,50,2013-01-23 07:53:00
2:53 AM,27.0,6.1,41,30.39,10.0,ENE,3.5,-,N/A,,Overcast,70,2013-01-23 08:53:00
3:53 AM,26.1,7.0,44,30.39,10.0,Calm,Calm,-,N/A,,Overcast,0,2013-01-23 09:53:00
4:53 AM,23.0,8.1,53,30.39,10.0,NE,4.6,-,N/A,,Partly Cloudy,50,2013-01-23 10:53:00
5:53 AM,24.1,8.1,51,30.39,10.0,Calm,Calm,-,N/A,,Partly Cloudy,0,2013-01-23 11:53:00
6:53 AM,23.0,9.0,55,30.38,10.0,Calm,Calm,-,N/A,,Scattered Clouds,0,2013-01-23 12:53:00
7:53 AM,27.0,10.0,49,30.38,10.0,ESE,3.5,-,N/A,,Partly Cloudy,120,2013-01-23 13:53:00
8:53 AM,30.0,9.0,41,30.38,10.0,SSE,5.8,-,N/A,,Scattered Clouds,150,2013-01-23 14:53:00
9:53 AM,35.1,10.0,35,30.38,10.0,South,5.8,-,N/A,,Partly Cloudy,190,2013-01-23 15:53:00
10:53 AM,39.9,14.0,35,30.34,10.0,SSE,5.8,-,N/A,,Partly Cloudy,150,2013-01-23 16:53:00
11:53 AM,44.1,17.1,34,30.29,10.0,WSW,6.9,-,N/A,,Scattered Clouds,240,2013-01-23 17:53:00
12:53 PM,48.0,21.0,34,30.25,10.0,WSW,5.8,-,N/A,,Scattered Clouds,240,2013-01-23 18:53:00
1:53 PM,50.0,23.0,35,30.21,10.0,SW,5.8,-,N/A,,Scattered Clouds,220,2013-01-23 19:53:00
2:53 PM,52.0,25.0,35,30.19,10.0,WSW,9.2,-,N/A,,Scattered Clouds,250,2013-01-23 20:53:00
3:53 PM,52.0,27.0,38,30.17,10.0,West,9.2,-,N/A,,Scattered Clouds,260,2013-01-23 21:53:00
4:53 PM,51.1,27.0,39,30.17,10.0,WSW,5.8,-,N/A,,Mostly Cloudy,250,2013-01-23 22:53:00
5:53 PM,48.9,28.0,44,30.16,10.0,SW,3.5,-,N/A,,Mostly Cloudy,220,2013-01-23 23:53:00
6:53 PM,46.9,28.0,48,30.17,10.0,Calm,Calm,-,N/A,,Partly Cloudy,0,2013-01-24 00:53:00
7:53 PM,41.0,28.0,60,30.16,10.0,Calm,Calm,-,N/A,,Clear,0,2013-01-24 01:53:00
8:53 PM,44.1,30.0,58,30.19,10.0,WSW,4.6,-,N/A,,Clear,250,2013-01-24 02:53:00
9:53 PM,44.1,32.0,63,30.21,10.0,West,5.8,-,N/A,,Mostly Cloudy,270,2013-01-24 03:53:00
10:53 PM,44.1,32.0,63,30.21,10.0,West,4.6,-,N/A,,Mostly Cloudy,260,2013-01-24 04:53:00
11:53 PM,43.0,32.0,65,30.21,10.0,West,3.5,-,N/A,,Mostly Cloudy,280,2013-01-24 05:53:00